Flag for U.S.A. Weather past 2 weeks in McAllen, Texas, U.S.A.

Now
48 °F

Fog.


Feels Like: 44 °F
Forecast: 55 / 74 °F
Wind: 8 mph from Northwest

Location: Miller International Airport

Current Time: Mar 1, 2015 at 2:32:38 AM

Latest Report: Mar 1, 2015 at 1:53 AM


Visibility: 2 mi

Pressure: 30.17 "Hg

Humidity: 93%

Dew point: 46 °F

Location of McAllenLocation

Historic Weather in McAllen — Graph

°F

McAllen temperature yesterday

Maximum temperature yesterday: 50 °F (at 4:53 PM)
Minimum temperature yesterday: 43 °F (at 6:53 AM)
Average temperature yesterday: 47 °F

Past Weeks' High & Low Weather Summary

 TemperatureHumidityPressure
High87 °F (Feb 21, 2:53 PM)97% (Feb 26, 5:53 AM)30.41 "Hg (Feb 26, 5:53 AM)
Low39 °F (Feb 24, 4:53 AM)23% (Feb 18, 2:53 PM)29.77 "Hg (Feb 21, 3:53 PM)
Average59 °F75%30.11 "Hg
* Reported Feb 14 12:53 AM — Mar 1 12:53 AM, McAllen, Weather by CustomWeather, © 2015

Note: Actual official high and low records may vary slightly from our data, if they occured in-between our weather recording intervals... More about our weather records

Advertising

McAllen weather history for previous 24 hours

 ConditionsComfort  
Time TempWeatherWind HumidityBarometerVisibility
12:53 AM
Sun, Mar 1
48 °FFog.9 mph93%30.17 "Hg3 mi
11:53 PM
Sat, Feb 28
48 °FFog.7 mph93%30.19 "Hg4 mi
10:53 PM49 °FFog.8 mph93%30.19 "Hg5 mi
9:53 PM50 °FFog.8 mph93%30.18 "Hg6 mi
8:53 PM50 °FFog.7 mph93%30.18 "Hg4 mi
7:53 PM50 °FFog.7 mph93%30.16 "Hg6 mi
6:53 PM50 °FLight rain. Fog.7 mph93%30.15 "Hg5 mi
5:53 PM50 °FFog.8 mph93%30.14 "Hg4 mi
4:53 PM50 °FLow clouds.10 mph89%30.14 "Hg10 mi
3:53 PM49 °FLow clouds.13 mph90%30.14 "Hg10 mi
2:53 PM48 °FLow clouds.9 mph89%30.15 "Hg8 mi
1:53 PM46 °FFog.9 mph89%30.17 "Hg3 mi
12:53 PM46 °FFog.12 mph89%30.20 "Hg5 mi
11:53 AM45 °FFog.10 mph90%30.23 "Hg6 mi
10:53 AM43 °FFog.12 mph93%30.24 "Hg4 mi
9:53 AM43 °FFog.13 mph93%30.24 "Hg4 mi
8:53 AM43 °FFog.12 mph93%30.22 "Hg2 mi
7:53 AM43 °FFog.9 mph93%30.22 "Hg2 mi
6:53 AM43 °FFog.13 mph97%30.20 "Hg2 mi
5:53 AM45 °FFog.9 mph93%30.18 "Hg2 mi
4:53 AM45 °FFog.9 mph97%30.18 "Hg2 mi
3:53 AM47 °FFog.8 mph93%30.18 "Hg2 mi
2:53 AM47 °FFog.9 mph97%30.17 "Hg2 mi
Weather by CustomWeather, © 2015

See weather overviewHow to use our weather pages